C/2008 L3 ( Hill )

Japanese version
Home page
Total 6,336 html files since Dec. 4, 1995
Updated on August 10, 2008

---------------------------------------------------------------------

* Profile

Discovery Date June 13, 2008
Magnitude 18.9 mag
Discoverer R. E. Hill (Catalina Sky Survey)

* Pictures

* Orbital Elements

T 2008 Apr. 22.3613 TT                                  MPC
q   2.010854             (2000.0)            P               Q
z  +0.003955       Peri.  101.7961      -0.1154259      -0.9077696
                   Node    24.1895      -0.6051996      -0.2576647
e   0.992047       Incl.  100.2036      +0.7876613      -0.3310035
From 50 observations 2008 June 13-Aug. 3.

* Finding Charts

* Magnitudes Graph

        m1 = 12.5 + 5 log d + 10.0 log r

---------------------------------------------------------------------

The orbital elements are published on M.P.E.C. 2008-P08.
The charts are made with StellaNavigator Ver.8 (AstroArts).
The magnitudes graphs are made with Comet for Windows.

---------------------------------------------------------------------

Copyright(C) 1995-2008 Seiichi Yoshida (comet@aerith.net). All rights reserved.